[[{"header":{"parameterUnit":"m.s-1","parameterCategory":1,"la1":30.2991,"la2":30.254,"lo1":-89.0895,"lo2":-89.0444,"dy":0.0017,"dx":0.0017,"nx":28,"ny":28,"refTime":"2025-12-16T09:00:00:Z","depth":0,"parameterNumber":2,"parameterNumberName":"U-component_of_WINDS"},"data":[0,0,0,0,0,0,0,0,0,0,0,0,0,0,0,0,0,0,0,0,0,0,0,0,0,0,0,0,0,0,0,0,0,0,0,0,0,0,0,0,0,0,0,0,0,0,0,0,0,0,0,0,0,0,0,0,0,0,-4.9397,-4.9398,0,-4.9456,-4.9457,-4.9458,-4.935,-4.9346,-4.9343,-4.934,-4.9397,-4.9401,-4.9406,0,0,0,0,0,0,0,0,0,0,0,0,0,-4.9186,-4.9191,-4.9397,-4.9398,-4.9399,-4.9456,-4.9457,-4.9458,-4.9351,-4.9346,-4.9342,-4.9338,-4.9395,-4.9401,-4.9407,0,0,0,0,0,0,0,0,0,0,0,0,0,-4.9265,-4.9192,-4.9397,-4.9352,-4.9349,-4.9456,-4.9457,-4.9458,-4.9352,-4.9346,-4.9341,-4.9336,-4.9393,-4.94,-4.9408,-4.956,0,0,-4.943,-4.9433,0,0,0,0,0,0,0,0,-4.9261,-4.9273,-4.9358,-4.9355,-4.9352,-4.939,-4.9404,-4.9492,-4.9353,-4.935,-4.9339,-4.9333,-4.9399,-4.9405,-4.9428,-4.9563,-4.9565,-4.943,-4.9435,-4.9438,-4.944,0,0,0,0,0,0,0,-4.9255,-4.927,-4.942,-4.9359,-4.9356,-4.9327,-4.9333,-4.942,-4.9404,-4.935,-4.9343,-4.9351,-4.9396,-4.9421,-4.9429,-4.9566,-4.943,-4.9437,-4.9441,-4.9444,-4.9826,-4.9832,0,0,0,0,0,0,-4.9256,-4.9266,-4.9418,-4.9422,-4.9292,-4.9336,-4.9342,-4.9383,-4.9403,-4.9401,-4.9356,-4.9346,-4.9411,-4.942,-4.943,-4.9607,-4.9438,-4.9445,-4.9449,-4.982,-4.9827,-4.9834,0,0,0,0,0,0,-4.9252,-4.9271,-4.9416,-4.9342,-4.9358,-4.9345,-4.9393,-4.9387,-4.9412,-4.9407,-4.9403,-4.9385,-4.9408,-4.942,-4.9528,-4.9608,-4.9448,-4.9455,-4.9814,-4.9823,-4.9831,-4.9965,0,0,0,0,0,0,-4.9246,-4.927,-4.9329,-4.9344,-4.9363,-4.9515,-4.9398,-4.9392,-4.9426,-4.9414,-4.9433,-4.9431,-4.9404,-4.9518,-4.9536,-4.9615,-4.946,-4.9806,-4.9818,-4.9828,-4.9953,-4.9977,-4.9997,0,0,0,0,0,-4.9239,-4.9364,-4.9332,-4.9351,-4.9436,-4.952,-4.953,-4.9497,-4.9433,-4.9491,-4.9487,-4.9431,-4.9598,-4.953,-4.9549,-4.9632,-4.9801,-4.9814,-4.9827,-4.9943,-4.9972,-4.9997,0,0,0,0,0,0,-4.9357,-4.9365,-4.933,-4.9464,-4.9492,-4.9501,-4.9573,-4.953,-4.9576,-4.9562,-4.9519,-4.9524,-4.9641,-4.9647,-4.9572,-4.9779,-4.9688,-4.9705,-4.977,-4.9797,-4.9819,-4.9813,-4.9467,0,0,0,0,0,-4.9399,-4.9467,-4.947,-4.9588,-4.9604,-4.9587,-4.9622,-4.9595,-4.9621,-4.9632,-4.9636,-4.9663,-4.9721,-4.976,-4.9814,-4.9955,-4.9955,-5.0021,-5.0043,-5.0061,-5.0075,-5.0147,-5.0175,-4.9876,-4.9876,-4.9876,0,0,-4.9485,-4.9498,-4.9544,-4.9612,-4.963,-4.97,-4.9597,-4.9676,-4.9726,-4.9644,-4.9745,-4.975,-4.9777,-4.9902,-4.9957,-4.9911,-5.0159,-5.0078,-5.0093,-5.0097,-5.0163,-5.0192,-5.0217,-4.9885,-4.9884,-4.9882,0,0,-4.9677,-4.9696,-4.9794,-4.9815,-4.9845,-4.9833,-4.9857,-4.9873,-4.9873,-4.9975,-4.9913,-4.9973,-5.0075,-5.0095,-5.012,-5.032,-5.0269,-5.0339,-5.0453,-5.0523,-5.0547,-5.0567,-5.0635,-5.066,-5.0354,-5.0355,-5.0355,0,-4.978,-4.9884,-4.985,-4.9933,-4.9963,-4.9893,-4.9991,-5.0013,-5.0058,-5.008,-5.0029,-5.0154,-5.0168,-5.0294,-5.0343,-5.0367,-5.039,-5.0335,-5.0547,-5.0567,-5.0585,-5.0649,-5.0676,-5.0363,-5.0362,-5.0361,-5.036,0,-5.0007,-5.008,-5.0156,-5.0202,-5.0242,-5.0332,-5.031,-5.0354,-5.0324,-5.0316,-5.042,-5.0434,-5.0488,-5.0517,-5.0488,-5.064,-5.061,-5.0554,-5.046,-5.0623,-5.0682,-5.0706,-5.0374,-5.0371,-5.0369,-5.0367,0,0,-5.0272,-5.0299,-5.0327,-5.0346,-5.0374,-5.0429,-5.0515,-5.0569,-5.0606,-5.064,-5.0709,-5.0797,-5.0745,-5.0773,-5.0746,-5.0809,-5.0962,-5.0744,-5.0744,-5.078,-5.1125,-5.1164,-5.1193,-5.093,-5.0935,-5.0938,-5.1121,0,-5.046,-5.0609,-5.0581,-5.0725,-5.079,-5.0726,-5.08,-5.0825,-5.0821,-5.0874,-5.0869,-5.0931,-5.086,-5.0875,-5.0935,-5.0931,-5.103,-5.0918,-5.099,-5.0993,-5.0981,-5.1224,-5.1266,-5.1438,-5.1145,-5.1149,-5.1151,0,-5.0697,-5.0741,-5.0892,-5.0908,-5.0934,-5.1002,-5.1048,-5.1101,-5.1127,-5.1119,-5.1151,-5.1112,-5.1195,-5.1105,-5.1218,-5.1142,-5.1171,-5.1173,-5.1179,-5.1181,-5.1079,-5.1228,-5.1492,-5.1516,-5.1188,-5.1185,-5.1183,0,-5.087,-5.0967,-5.1069,-5.1088,-5.111,-5.1159,-5.117,-5.1191,-5.1225,-5.1265,-5.1285,-5.1335,-5.1361,-5.14,-5.1375,-5.1312,-5.1491,-5.1399,-5.1484,-5.1484,-5.152,-5.1518,-5.1788,-5.1547,-5.1547,-5.1546,-5.1546,0,-5.108,-5.1174,-5.1146,-5.1209,-5.1312,-5.1279,-5.1381,-5.1385,-5.1404,-5.1464,-5.1413,-5.147,-5.1436,-5.149,-5.1472,-5.1565,-5.1579,-5.1573,-5.1566,-5.1575,-5.1575,-5.1589,-5.1575,-5.1553,-5.1552,-5.155,-5.1549,0,-5.1288,-5.1274,-5.138,-5.1394,-5.1399,-5.1474,-5.1484,-5.1541,-5.1534,-5.1611,-5.1627,-5.1616,-5.1677,-5.1657,-5.1723,-5.171,-5.1828,-5.1809,-5.182,-5.1813,-5.1897,-5.1888,-5.2183,-5.2218,-5.1959,-5.1961,-5.1963,0,-5.142,-5.1491,-5.1512,-5.1549,-5.1565,-5.1626,-5.166,-5.1631,-5.1668,-5.1702,-5.1755,-5.1812,-5.1855,-5.1956,-5.1952,-5.2002,-5.1979,-5.208,-5.1986,-5.1992,-5.1976,-5.197,-5.1975,-5.2096,-5.21,-5.2102,-5.2104,0,-5.1655,-5.1645,-5.1696,-5.1746,-5.1788,-5.1825,-5.1858,-5.1891,-5.1864,-5.1908,-5.197,-5.2004,-5.2072,-5.2128,-5.2173,-5.2182,-5.2138,-5.2134,-5.2155,-5.2163,-5.2165,-5.216,-5.1865,-5.2126,-5.2124,-5.2122,-5.2121,-5.212,-5.1826,-5.1885,-5.1908,-5.1967,-5.1989,-5.202,-5.2074,-5.2074,-5.2126,-5.2179,-5.2159,-5.223,-5.2252,-5.2308,-5.2324,-5.2378,-5.2339,-5.2371,-5.2378,-5.2386,-5.2394,-5.2161,-5.2387,-5.2386,-5.2385,-5.2385,-5.2384,0,-5.2054,-5.2067,-5.2121,-5.2168,-5.2214,-5.2172,-5.2205,-5.2245,-5.2309,-5.2334,-5.2379,-5.2449,-5.2503,-5.2505,-5.2555,-5.2597,-5.2578,-5.2611,-5.2605,-5.2607,-5.2429,-5.2403,-5.2626,-5.2626,-5.2625,-5.2625,-5.2625,-5.2625,-5.2178,-5.2274,-5.2267,-5.2372,-5.2384,-5.2453,-5.2476,-5.2503,-5.2523,-5.2605,-5.265,-5.2651,-5.2666,-5.2717,-5.2764,-5.2763,-5.2782,-5.2822,-5.2812,-5.2644,-5.262,-5.2597,-5.2572,-5.2827,-5.2828,-5.2986,-5.2987,-5.2988]},{"header":{"parameterUnit":"m.s-1","parameterCategory":1,"la1":30.2991,"la2":30.254,"lo1":-89.0895,"lo2":-89.0444,"dy":0.0017,"dx":0.0017,"nx":28,"ny":28,"refTime":"2025-12-16T09:00:00:Z","depth":0,"parameterNumber":3,"parameterNumberName":"V-component_of_WINDS"},"data":[0,0,0,0,0,0,0,0,0,0,0,0,0,0,0,0,0,0,0,0,0,0,0,0,0,0,0,0,0,0,0,0,0,0,0,0,0,0,0,0,0,0,0,0,0,0,0,0,0,0,0,0,0,0,0,0,0,0,1.4149,1.415,0,1.4257,1.4259,1.426,1.4304,1.4304,1.4304,1.4303,1.4408,1.4411,1.4414,0,0,0,0,0,0,0,0,0,0,0,0,0,1.3974,1.3977,1.4148,1.415,1.4151,1.4257,1.4259,1.426,1.4304,1.4304,1.4303,1.4303,1.4407,1.4411,1.4415,0,0,0,0,0,0,0,0,0,0,0,0,0,1.4063,1.3978,1.4148,1.4186,1.4191,1.4257,1.4259,1.4261,1.4304,1.4304,1.4303,1.4303,1.4406,1.4411,1.4415,1.445,0,0,1.4429,1.4431,0,0,0,0,0,0,0,0,1.4058,1.4069,1.4179,1.4184,1.4189,1.4267,1.4236,1.4324,1.4304,1.4261,1.4303,1.4303,1.4361,1.4369,1.439,1.4455,1.4459,1.4429,1.4432,1.4434,1.4435,0,0,0,0,0,0,0,1.4052,1.4065,1.4191,1.4181,1.4187,1.4196,1.4208,1.4253,1.4311,1.4265,1.4268,1.4281,1.4364,1.4386,1.4393,1.4461,1.4429,1.4433,1.4436,1.4438,1.4561,1.4562,0,0,0,0,0,0,1.404,1.4059,1.4188,1.4195,1.4121,1.42,1.4213,1.4242,1.4311,1.4321,1.4281,1.4282,1.4378,1.4388,1.4397,1.4444,1.4434,1.4438,1.4441,1.4561,1.4561,1.4562,0,0,0,0,0,0,1.4036,1.4051,1.4184,1.4128,1.4146,1.4203,1.4235,1.4244,1.4267,1.4324,1.4334,1.4293,1.4378,1.4391,1.4437,1.4448,1.444,1.4444,1.456,1.4561,1.4562,1.4537,0,0,0,0,0,0,1.4031,1.4049,1.4064,1.4128,1.4149,1.4223,1.4236,1.4247,1.4275,1.4278,1.4338,1.4347,1.4379,1.443,1.4442,1.4454,1.4448,1.4559,1.456,1.4561,1.4537,1.4537,1.4536,0,0,0,0,0,1.4025,1.4051,1.4065,1.408,1.4169,1.4224,1.4235,1.4274,1.4276,1.4291,1.4328,1.4345,1.4445,1.4435,1.4448,1.4462,1.4559,1.456,1.4561,1.4537,1.4537,1.4536,0,0,0,0,0,0,1.3984,1.406,1.4076,1.4124,1.4168,1.4231,1.4251,1.4272,1.4314,1.4314,1.4358,1.4371,1.4414,1.4442,1.443,1.45,1.4503,1.4507,1.448,1.448,1.448,1.4472,1.4452,0,0,0,0,0,1.3981,1.4021,1.4085,1.4121,1.4143,1.4193,1.4219,1.4245,1.429,1.4308,1.4348,1.439,1.4432,1.4457,1.4498,1.4541,1.4555,1.4557,1.4557,1.4556,1.4559,1.4585,1.4587,1.4566,1.4566,1.4566,0,0,1.3974,1.4021,1.4043,1.4114,1.4151,1.4191,1.4208,1.4249,1.4278,1.4314,1.4361,1.4392,1.4442,1.4488,1.4509,1.4512,1.4568,1.4558,1.4557,1.4561,1.4587,1.4589,1.4591,1.4567,1.4567,1.4567,0,0,1.3983,1.4023,1.4058,1.4095,1.4152,1.4186,1.4194,1.4256,1.4278,1.4327,1.4355,1.439,1.4459,1.4495,1.4521,1.4546,1.4564,1.4558,1.4556,1.4581,1.4583,1.4585,1.4594,1.4597,1.456,1.456,1.456,0,1.3967,1.403,1.4073,1.4114,1.4144,1.4181,1.4217,1.425,1.4316,1.4335,1.4338,1.4428,1.4464,1.4519,1.4525,1.4545,1.4556,1.4551,1.458,1.4582,1.4584,1.4593,1.4597,1.4559,1.4559,1.4559,1.4559,0,1.4009,1.4052,1.4074,1.414,1.4172,1.421,1.4258,1.4286,1.4309,1.4342,1.4392,1.4437,1.4488,1.4503,1.4525,1.4561,1.4562,1.4571,1.4576,1.4584,1.4594,1.4598,1.4558,1.4558,1.4558,1.4559,0,0,1.3993,1.4085,1.4092,1.4123,1.4189,1.4223,1.4262,1.4315,1.4338,1.4382,1.4416,1.4476,1.4486,1.4516,1.4543,1.4565,1.4582,1.4572,1.4574,1.4573,1.4626,1.4619,1.4622,1.4595,1.4596,1.4597,1.4622,0,1.4012,1.4087,1.4127,1.4184,1.4225,1.4261,1.4296,1.4339,1.4371,1.4409,1.4444,1.4486,1.4496,1.4515,1.4538,1.4575,1.4594,1.4574,1.4626,1.4627,1.4613,1.4627,1.4619,1.4641,1.4626,1.4627,1.4627,0,1.4043,1.409,1.4152,1.4215,1.4234,1.4264,1.4317,1.4353,1.4403,1.4425,1.446,1.4487,1.4529,1.453,1.4589,1.4574,1.4598,1.462,1.4621,1.4628,1.4628,1.4634,1.4649,1.4652,1.4633,1.4633,1.4633,0,1.4027,1.4105,1.4153,1.4178,1.4253,1.4274,1.4306,1.4356,1.4385,1.443,1.445,1.4499,1.4525,1.4561,1.46,1.4597,1.4655,1.4659,1.4674,1.4673,1.4684,1.4683,1.4703,1.4698,1.4698,1.4698,1.4698,0,1.4043,1.4079,1.4147,1.4177,1.4219,1.4265,1.4305,1.4339,1.4383,1.4419,1.4452,1.4485,1.4534,1.4572,1.4603,1.4647,1.4658,1.4676,1.4684,1.4674,1.4671,1.469,1.4689,1.4699,1.4699,1.4699,1.4699,0,1.4032,1.4079,1.4134,1.4201,1.4219,1.4247,1.4304,1.4333,1.4368,1.4413,1.4426,1.448,1.4527,1.457,1.4631,1.4652,1.4697,1.4706,1.468,1.4685,1.4697,1.4696,1.473,1.4737,1.4727,1.4727,1.4727,0,1.4039,1.4069,1.414,1.4168,1.42,1.4244,1.4276,1.4322,1.4353,1.4413,1.4435,1.4486,1.4528,1.4601,1.4645,1.4692,1.4703,1.4712,1.471,1.47,1.4704,1.4702,1.4705,1.4711,1.4711,1.4711,1.4711,0,1.4048,1.407,1.4116,1.417,1.4207,1.4251,1.4296,1.4316,1.4371,1.4404,1.4454,1.4488,1.4552,1.4601,1.4654,1.4685,1.4707,1.4712,1.4718,1.4707,1.4692,1.4701,1.468,1.471,1.471,1.4711,1.4711,1.4711,1.4047,1.4075,1.4131,1.4181,1.422,1.4262,1.4294,1.4334,1.4377,1.4436,1.446,1.4511,1.4561,1.4635,1.4665,1.4705,1.4709,1.4717,1.472,1.4721,1.472,1.4686,1.4714,1.4714,1.4715,1.4715,1.4715,0,1.4058,1.4096,1.4142,1.4205,1.4244,1.4265,1.4316,1.4347,1.4392,1.4438,1.448,1.4538,1.4587,1.4635,1.4686,1.4708,1.4719,1.472,1.4718,1.4725,1.4713,1.4703,1.471,1.471,1.471,1.471,1.471,1.471,1.4068,1.4118,1.4148,1.4218,1.4255,1.4308,1.4335,1.4374,1.4411,1.4475,1.4517,1.4549,1.4596,1.4651,1.4696,1.4709,1.4726,1.4723,1.4739,1.4726,1.4726,1.4726,1.4717,1.4727,1.4727,1.4749,1.4749,1.4749]}]]